Time,TemperatureF,DewpointF,PressureIn,WindDirection,WindDirectionDegrees,WindSpeedMPH,WindSpeedGustMPH,Humidity,HourlyPrecipIn,Conditions,Clouds,dailyrainin,SoftwareType,DateUTC
2013-03-19 00:01:00,32.6,31.1,29.87,ESE,105,1.0,1.0,94,0.00,,,0.00,Wunderground v.1.15,2013-03-19 04:01:00,
2013-03-19 00:02:00,32.6,31.1,29.87,ESE,105,0.0,1.0,94,0.00,,,0.00,Wunderground v.1.15,2013-03-19 04:02:00,
2013-03-19 00:04:00,32.5,31.0,29.87,ESE,105,0.0,1.0,94,0.00,,,0.00,Wunderground v.1.15,2013-03-19 04:04:00,
2013-03-19 00:07:00,32.6,31.1,29.86,ESE,105,0.0,1.0,94,0.00,,,0.00,Wunderground v.1.15,2013-03-19 04:07:00,
2013-03-19 00:12:00,32.5,31.0,29.86,ESE,105,0.0,0.0,94,0.00,,,0.00,Wunderground v.1.15,2013-03-19 04:12:00,
2013-03-19 00:18:00,32.7,31.2,29.87,ESE,105,0.0,0.0,94,0.00,,,0.00,Wunderground v.1.15,2013-03-19 04:18:00,
2013-03-19 00:23:00,32.7,31.2,29.86,ESE,104,0.0,0.0,94,0.00,,,0.00,Wunderground v.1.15,2013-03-19 04:23:00,
2013-03-19 00:29:00,32.7,31.2,29.86,ESE,105,0.0,0.0,94,0.00,,,0.00,Wunderground v.1.15,2013-03-19 04:29:00,
2013-03-19 00:35:00,32.7,31.2,29.87,ESE,105,0.0,0.0,94,0.00,,,0.00,Wunderground v.1.15,2013-03-19 04:35:00,
2013-03-19 00:40:00,32.8,31.3,29.86,ESE,105,0.0,1.0,94,0.00,,,0.00,Wunderground v.1.15,2013-03-19 04:40:00,
2013-03-19 00:45:00,32.8,31.3,29.86,ESE,105,0.0,0.0,94,0.00,,,0.00,Wunderground v.1.15,2013-03-19 04:45:00,
2013-03-19 00:51:00,32.8,31.3,29.85,ESE,105,0.0,2.0,94,0.00,,,0.00,Wunderground v.1.15,2013-03-19 04:51:00,
2013-03-19 00:57:00,32.9,31.4,29.85,ESE,105,0.0,2.0,94,0.00,,,0.00,Wunderground v.1.15,2013-03-19 04:57:00,
2013-03-19 01:02:00,32.9,31.4,29.84,ESE,105,0.0,2.0,94,0.00,,,0.00,Wunderground v.1.15,2013-03-19 05:02:00,
2013-03-19 01:08:00,32.9,31.4,29.85,ESE,105,1.0,2.0,94,0.00,,,0.00,Wunderground v.1.15,2013-03-19 05:08:00,
2013-03-19 01:14:00,33.0,31.5,29.84,ESE,105,1.0,2.0,94,0.00,,,0.00,Wunderground v.1.15,2013-03-19 05:14:00,
2013-03-19 01:20:00,33.0,31.5,29.84,ESE,105,1.0,1.0,94,0.00,,,0.00,Wunderground v.1.15,2013-03-19 05:20:00,
2013-03-19 01:25:00,33.0,31.5,29.83,ESE,105,0.0,2.0,94,0.00,,,0.00,Wunderground v.1.15,2013-03-19 05:25:00,
2013-03-19 01:31:00,33.0,31.5,29.83,ESE,105,0.0,2.0,94,0.00,,,0.00,Wunderground v.1.15,2013-03-19 05:31:00,
2013-03-19 01:37:00,33.1,31.6,29.83,ESE,105,1.0,2.0,94,0.00,,,0.00,Wunderground v.1.15,2013-03-19 05:37:00,
2013-03-19 01:42:00,33.1,31.6,29.82,ESE,105,1.0,2.0,94,0.00,,,0.00,Wunderground v.1.15,2013-03-19 05:42:00,
2013-03-19 01:47:00,33.1,31.6,29.82,ESE,105,1.0,2.0,94,0.00,,,0.00,Wunderground v.1.15,2013-03-19 05:47:00,
2013-03-19 01:53:00,33.2,31.7,29.82,ESE,105,0.0,2.0,94,0.00,,,0.00,Wunderground v.1.15,2013-03-19 05:53:00,
2013-03-19 01:58:00,33.2,31.7,29.83,ESE,104,0.0,2.0,94,0.00,,,0.00,Wunderground v.1.15,2013-03-19 05:58:00,
2013-03-19 02:04:00,33.1,31.6,29.82,ESE,105,0.0,2.0,94,0.00,,,0.00,Wunderground v.1.15,2013-03-19 06:04:00,
2013-03-19 02:10:00,33.1,31.6,29.82,ESE,105,0.0,2.0,94,0.00,,,0.00,Wunderground v.1.15,2013-03-19 06:10:00,
2013-03-19 02:16:00,33.1,31.6,29.82,ESE,105,0.0,2.0,94,0.00,,,0.00,Wunderground v.1.15,2013-03-19 06:16:00,
2013-03-19 02:21:00,33.2,31.7,29.82,ESE,105,1.0,2.0,94,0.00,,,0.00,Wunderground v.1.15,2013-03-19 06:21:00,
2013-03-19 02:27:00,33.2,31.7,29.81,ESE,105,0.0,2.0,94,0.00,,,0.00,Wunderground v.1.15,2013-03-19 06:27:00,
2013-03-19 02:32:00,33.2,31.7,29.81,ESE,105,1.0,2.0,94,0.00,,,0.00,Wunderground v.1.15,2013-03-19 06:32:00,
2013-03-19 02:37:00,33.3,31.8,29.80,ESE,105,1.0,2.0,94,0.00,,,0.00,Wunderground v.1.15,2013-03-19 06:37:00,
2013-03-19 02:42:00,33.3,31.8,29.80,ESE,105,1.0,2.0,94,0.00,,,0.00,Wunderground v.1.15,2013-03-19 06:42:00,
2013-03-19 02:47:00,33.3,31.8,29.80,ESE,105,1.0,2.0,94,0.00,,,0.00,Wunderground v.1.15,2013-03-19 06:47:00,
2013-03-19 02:52:00,33.3,31.8,29.79,ESE,105,1.0,2.0,94,0.00,,,0.00,Wunderground v.1.15,2013-03-19 06:52:00,
2013-03-19 02:58:00,33.4,31.9,29.79,ESE,105,1.0,2.0,94,0.00,,,0.00,Wunderground v.1.15,2013-03-19 06:58:00,
2013-03-19 03:03:00,33.4,31.9,29.79,ESE,105,0.0,2.0,94,0.00,,,0.00,Wunderground v.1.15,2013-03-19 07:03:00,
2013-03-19 03:09:00,33.4,31.9,29.78,ESE,104,0.0,2.0,94,0.00,,,0.00,Wunderground v.1.15,2013-03-19 07:09:00,
2013-03-19 03:14:00,33.4,31.9,29.79,ESE,105,0.0,2.0,94,0.00,,,0.00,Wunderground v.1.15,2013-03-19 07:14:00,
2013-03-19 03:20:00,33.3,31.8,29.78,ESE,105,0.0,2.0,94,0.00,,,0.00,Wunderground v.1.15,2013-03-19 07:20:00,
2013-03-19 03:26:00,33.3,31.8,29.78,ESE,105,0.0,2.0,94,0.00,,,0.00,Wunderground v.1.15,2013-03-19 07:26:00,
2013-03-19 03:32:00,33.4,31.9,29.78,ESE,105,0.0,2.0,94,0.00,,,0.00,Wunderground v.1.15,2013-03-19 07:32:00,
2013-03-19 03:37:00,33.4,31.9,29.78,ESE,105,0.0,2.0,94,0.00,,,0.00,Wunderground v.1.15,2013-03-19 07:37:00,
2013-03-19 03:43:00,33.4,31.9,29.78,ESE,105,0.0,2.0,94,0.00,,,0.00,Wunderground v.1.15,2013-03-19 07:43:00,
2013-03-19 03:48:00,33.4,31.9,29.78,ESE,104,0.0,2.0,94,0.00,,,0.00,Wunderground v.1.15,2013-03-19 07:48:00,
2013-03-19 03:53:00,33.4,31.9,29.78,ESE,105,0.0,2.0,94,0.00,,,0.00,Wunderground v.1.15,2013-03-19 07:53:00,
2013-03-19 03:59:00,33.3,31.8,29.77,ESE,105,0.0,2.0,94,0.00,,,0.00,Wunderground v.1.15,2013-03-19 07:59:00,
2013-03-19 04:04:00,33.3,31.8,29.77,ESE,105,1.0,2.0,94,0.00,,,0.00,Wunderground v.1.15,2013-03-19 08:04:00,
2013-03-19 04:09:00,33.3,31.8,29.77,ESE,105,2.0,2.0,94,0.00,,,0.00,Wunderground v.1.15,2013-03-19 08:09:00,
2013-03-19 04:14:00,33.4,31.9,29.76,ESE,105,2.0,3.0,94,0.00,,,0.00,Wunderground v.1.15,2013-03-19 08:14:00,
2013-03-19 04:20:00,33.4,31.9,29.76,ESE,105,2.0,2.0,94,0.00,,,0.00,Wunderground v.1.15,2013-03-19 08:20:00,
2013-03-19 04:26:00,33.4,31.9,29.76,ESE,104,0.0,2.0,94,0.00,,,0.00,Wunderground v.1.15,2013-03-19 08:26:00,
2013-03-19 04:33:00,33.3,31.8,29.76,ESE,105,0.0,2.0,94,0.00,,,0.00,Wunderground v.1.15,2013-03-19 08:33:00,
2013-03-19 04:39:00,33.4,31.9,29.76,ESE,104,0.0,2.0,94,0.00,,,0.00,Wunderground v.1.15,2013-03-19 08:39:00,
2013-03-19 04:44:00,33.4,31.9,29.76,ESE,105,0.0,2.0,94,0.00,,,0.00,Wunderground v.1.15,2013-03-19 08:44:00,
2013-03-19 04:50:00,33.5,32.0,29.76,ESE,105,0.0,2.0,94,0.00,,,0.00,Wunderground v.1.15,2013-03-19 08:50:00,
2013-03-19 04:55:00,33.5,32.0,29.75,ESE,105,0.0,2.0,94,0.00,,,0.00,Wunderground v.1.15,2013-03-19 08:55:00,
2013-03-19 05:00:00,33.5,32.0,29.76,ESE,104,0.0,2.0,94,0.00,,,0.00,Wunderground v.1.15,2013-03-19 09:00:00,
2013-03-19 05:05:00,33.5,32.0,29.75,ESE,105,0.0,2.0,94,0.00,,,0.00,Wunderground v.1.15,2013-03-19 09:05:00,
2013-03-19 05:12:00,33.5,32.0,29.75,ESE,105,0.0,2.0,94,0.00,,,0.00,Wunderground v.1.15,2013-03-19 09:12:00,
2013-03-19 05:18:00,33.5,32.0,29.75,ESE,105,0.0,2.0,94,0.00,,,0.00,Wunderground v.1.15,2013-03-19 09:18:00,
2013-03-19 05:24:00,33.4,31.9,29.75,ESE,105,0.0,2.0,94,0.00,,,0.00,Wunderground v.1.15,2013-03-19 09:24:00,
2013-03-19 05:30:00,33.3,31.8,29.75,ESE,105,0.0,2.0,94,0.00,,,0.00,Wunderground v.1.15,2013-03-19 09:30:00,
2013-03-19 05:35:00,33.2,31.7,29.75,ESE,105,1.0,2.0,94,0.00,,,0.00,Wunderground v.1.15,2013-03-19 09:35:00,
2013-03-19 05:41:00,33.1,31.6,29.75,ESE,105,1.0,2.0,94,0.00,,,0.00,Wunderground v.1.15,2013-03-19 09:41:00,
2013-03-19 05:47:00,33.0,31.5,29.75,ESE,105,1.0,2.0,94,0.00,,,0.00,Wunderground v.1.15,2013-03-19 09:47:00,
2013-03-19 05:52:00,33.0,31.5,29.75,ESE,105,1.0,2.0,94,0.00,,,0.00,Wunderground v.1.15,2013-03-19 09:52:00,
2013-03-19 05:57:00,33.0,31.5,29.75,ESE,105,0.0,2.0,94,0.00,,,0.00,Wunderground v.1.15,2013-03-19 09:57:00,
2013-03-19 06:03:00,32.9,31.4,29.75,ESE,105,1.0,2.0,94,0.00,,,0.00,Wunderground v.1.15,2013-03-19 10:03:00,
2013-03-19 06:08:00,32.8,31.3,29.75,ESE,105,1.0,2.0,94,0.00,,,0.00,Wunderground v.1.15,2013-03-19 10:08:00,
2013-03-19 06:14:00,32.8,31.3,29.75,ESE,104,0.0,2.0,94,0.00,,,0.00,Wunderground v.1.15,2013-03-19 10:14:00,
2013-03-19 06:19:00,32.7,31.2,29.76,ESE,105,0.0,2.0,94,0.00,,,0.00,Wunderground v.1.15,2013-03-19 10:19:00,
2013-03-19 06:24:00,32.7,31.2,29.76,ESE,105,1.0,2.0,94,0.00,,,0.00,Wunderground v.1.15,2013-03-19 10:24:00,
2013-03-19 06:30:00,32.7,31.2,29.75,ESE,105,1.0,1.0,94,0.00,,,0.00,Wunderground v.1.15,2013-03-19 10:30:00,
2013-03-19 06:35:00,32.6,31.1,29.75,ESE,105,1.0,2.0,94,0.00,,,0.00,Wunderground v.1.15,2013-03-19 10:35:00,
2013-03-19 06:42:00,32.7,31.2,29.76,ESE,105,0.0,2.0,94,0.00,,,0.00,Wunderground v.1.15,2013-03-19 10:42:00,
2013-03-19 06:47:00,32.8,31.3,29.77,ESE,105,0.0,2.0,94,0.00,,,0.00,Wunderground v.1.15,2013-03-19 10:47:00,
2013-03-19 06:53:00,32.6,31.1,29.77,ESE,104,0.0,2.0,94,0.00,,,0.00,Wunderground v.1.15,2013-03-19 10:53:00,
2013-03-19 06:59:00,32.5,31.0,29.77,ESE,104,1.0,2.0,94,0.00,,,0.00,Wunderground v.1.15,2013-03-19 10:59:00,
2013-03-19 07:04:00,32.6,31.1,29.78,ESE,104,0.0,2.0,94,0.00,,,0.00,Wunderground v.1.15,2013-03-19 11:04:00,
2013-03-19 07:10:00,32.7,31.2,29.78,ESE,104,0.0,2.0,94,0.00,,,0.00,Wunderground v.1.15,2013-03-19 11:10:00,
2013-03-19 07:15:00,32.7,31.2,29.78,ESE,122,0.0,2.0,94,0.00,,,0.00,Wunderground v.1.15,2013-03-19 11:15:00,
2013-03-19 07:20:00,32.8,31.3,29.79,SSE,168,1.0,2.0,94,0.00,,,0.00,Wunderground v.1.15,2013-03-19 11:20:00,
2013-03-19 07:25:00,33.0,31.7,29.78,South,181,1.0,2.0,95,0.00,,,0.00,Wunderground v.1.15,2013-03-19 11:25:00,
2013-03-19 07:32:00,33.5,32.0,29.79,SSW,199,1.0,2.0,94,0.00,,,0.00,Wunderground v.1.15,2013-03-19 11:32:00,
2013-03-19 07:37:00,34.0,32.7,29.79,SSW,208,1.0,2.0,95,0.00,,,0.00,Wunderground v.1.15,2013-03-19 11:37:00,
2013-03-19 07:42:00,34.4,33.1,29.79,WSW,243,2.0,3.0,95,0.00,,,0.00,Wunderground v.1.15,2013-03-19 11:42:00,
2013-03-19 07:48:00,35.1,33.8,29.79,WSW,249,2.0,4.0,95,0.00,,,0.00,Wunderground v.1.15,2013-03-19 11:48:00,
2013-03-19 07:53:00,36.5,35.2,29.80,WSW,244,3.0,6.0,95,0.00,,,0.00,Wunderground v.1.15,2013-03-19 11:53:00,
2013-03-19 07:59:00,38.2,36.9,29.80,WSW,250,5.0,7.0,95,0.00,,,0.00,Wunderground v.1.15,2013-03-19 11:59:00,
2013-03-19 08:04:00,39.0,37.7,29.80,WSW,247,6.0,6.0,95,0.00,,,0.00,Wunderground v.1.15,2013-03-19 12:04:00,
2013-03-19 08:09:00,39.2,37.1,29.80,West,266,6.0,6.0,92,0.00,,,0.00,Wunderground v.1.15,2013-03-19 12:09:00,
2013-03-19 08:15:00,39.7,37.0,29.81,West,259,6.0,7.0,90,0.00,,,0.00,Wunderground v.1.15,2013-03-19 12:15:00,
2013-03-19 08:23:00,40.2,36.9,29.81,West,268,6.0,6.0,88,0.00,,,0.00,Wunderground v.1.15,2013-03-19 12:23:00,
2013-03-19 08:28:00,40.5,37.2,29.81,West,278,5.0,7.0,88,0.00,,,0.00,Wunderground v.1.15,2013-03-19 12:28:00,
2013-03-19 08:33:00,40.8,37.2,29.81,WSW,255,6.0,8.0,87,0.00,,,0.00,Wunderground v.1.15,2013-03-19 12:33:00,
2013-03-19 08:38:00,41.3,37.4,29.82,SW,236,6.0,12.0,86,0.00,,,0.00,Wunderground v.1.15,2013-03-19 12:38:00,
2013-03-19 08:44:00,42.0,37.2,29.82,WSW,254,7.0,11.0,83,0.00,,,0.00,Wunderground v.1.15,2013-03-19 12:44:00,
2013-03-19 08:50:00,42.5,37.4,29.82,WSW,254,8.0,8.0,82,0.00,,,0.00,Wunderground v.1.15,2013-03-19 12:50:00,
2013-03-19 08:55:00,42.7,37.6,29.82,WSW,250,7.0,8.0,82,0.00,,,0.01,Wunderground v.1.15,2013-03-19 12:55:00,
2013-03-19 09:01:00,42.9,37.2,29.82,WSW,254,8.0,9.0,80,0.00,,,0.01,Wunderground v.1.15,2013-03-19 13:01:00,
2013-03-19 09:06:00,43.1,37.3,29.82,WSW,247,8.0,12.0,80,0.00,,,0.01,Wunderground v.1.15,2013-03-19 13:06:00,
2013-03-19 09:12:00,43.1,37.0,29.83,WNW,289,7.0,8.0,79,0.00,,,0.01,Wunderground v.1.15,2013-03-19 13:12:00,
2013-03-19 09:18:00,43.1,37.0,29.83,WSW,243,7.0,8.0,79,0.00,,,0.01,Wunderground v.1.15,2013-03-19 13:18:00,
2013-03-19 09:23:00,43.3,36.9,29.83,West,279,6.0,7.0,78,0.28,,,0.03,Wunderground v.1.15,2013-03-19 13:23:00,
2013-03-19 09:28:00,43.4,36.7,29.82,WSW,241,5.0,7.0,77,0.26,,,0.06,Wunderground v.1.15,2013-03-19 13:28:00,
2013-03-19 09:34:00,43.7,36.6,29.82,West,261,4.0,5.0,76,0.34,,,0.09,Wunderground v.1.15,2013-03-19 13:34:00,
2013-03-19 09:39:00,43.9,35.8,29.82,WSW,253,5.0,10.0,73,0.33,,,0.11,Wunderground v.1.15,2013-03-19 13:39:00,
2013-03-19 09:44:00,44.1,36.0,29.82,West,262,6.0,9.0,73,0.27,,,0.13,Wunderground v.1.15,2013-03-19 13:44:00,
2013-03-19 09:50:00,44.3,35.1,29.82,West,268,8.0,8.0,70,0.25,,,0.15,Wunderground v.1.15,2013-03-19 13:50:00,
2013-03-19 09:57:00,44.6,36.1,29.82,WNW,296,6.0,8.0,72,0.19,,,0.17,Wunderground v.1.15,2013-03-19 13:57:00,
2013-03-19 10:03:00,44.9,35.0,29.82,WSW,258,5.0,9.0,68,0.20,,,0.19,Wunderground v.1.15,2013-03-19 14:03:00,
2013-03-19 10:08:00,45.0,35.1,29.82,West,264,6.0,9.0,68,0.20,,,0.21,Wunderground v.1.15,2013-03-19 14:08:00,
2013-03-19 10:14:00,45.3,34.2,29.82,West,268,6.0,9.0,65,0.13,,,0.22,Wunderground v.1.15,2013-03-19 14:14:00,
2013-03-19 10:19:00,45.4,35.1,29.82,WNW,287,6.0,9.0,67,0.17,,,0.23,Wunderground v.1.15,2013-03-19 14:19:00,
2013-03-19 10:24:00,45.3,33.0,29.82,West,281,7.0,9.0,62,0.12,,,0.24,Wunderground v.1.15,2013-03-19 14:24:00,
2013-03-19 10:29:00,45.2,33.3,29.82,WNW,282,8.0,9.0,63,0.13,,,0.25,Wunderground v.1.15,2013-03-19 14:29:00,
2013-03-19 10:34:00,45.5,34.0,29.82,West,277,8.0,11.0,64,0.11,,,0.26,Wunderground v.1.15,2013-03-19 14:34:00,
2013-03-19 10:39:00,45.8,32.7,29.82,NW,305,7.0,11.0,60,0.13,,,0.27,Wunderground v.1.15,2013-03-19 14:39:00,
2013-03-19 10:45:00,46.3,32.7,29.82,West,271,6.0,8.0,59,0.10,,,0.28,Wunderground v.1.15,2013-03-19 14:45:00,
2013-03-19 10:51:00,46.3,31.0,29.82,West,268,8.0,15.0,55,0.11,,,0.29,Wunderground v.1.15,2013-03-19 14:51:00,
2013-03-19 10:56:00,46.4,31.1,29.83,WNW,289,9.0,15.0,55,0.14,,,0.31,Wunderground v.1.15,2013-03-19 14:56:00,
2013-03-19 11:02:00,46.6,29.4,29.82,West,279,9.0,13.0,51,0.09,,,0.31,Wunderground v.1.15,2013-03-19 15:02:00,
2013-03-19 11:07:00,46.8,29.1,29.82,WSW,249,8.0,13.0,50,0.09,,,0.32,Wunderground v.1.15,2013-03-19 15:07:00,
2013-03-19 11:13:00,46.9,30.2,29.82,WSW,241,7.0,8.0,52,0.10,,,0.33,Wunderground v.1.15,2013-03-19 15:13:00,
2013-03-19 11:19:00,47.0,29.8,29.82,WSW,243,8.0,11.0,51,0.09,,,0.34,Wunderground v.1.15,2013-03-19 15:19:00,
2013-03-19 11:25:00,47.0,28.8,29.82,NW,325,9.0,14.0,49,0.12,,,0.35,Wunderground v.1.15,2013-03-19 15:25:00,
2013-03-19 11:30:00,47.1,29.9,29.82,WNW,292,10.0,10.0,51,0.08,,,0.36,Wunderground v.1.15,2013-03-19 15:30:00,
2013-03-19 11:35:00,47.3,29.6,29.82,WNW,294,9.0,15.0,50,0.09,,,0.37,Wunderground v.1.15,2013-03-19 15:35:00,
2013-03-19 11:40:00,47.1,28.9,29.81,NW,319,10.0,12.0,49,0.09,,,0.37,Wunderground v.1.15,2013-03-19 15:40:00,
2013-03-19 11:46:00,47.4,28.7,29.81,West,278,11.0,15.0,48,0.08,,,0.38,Wunderground v.1.15,2013-03-19 15:46:00,
2013-03-19 11:51:00,47.8,29.0,29.81,WNW,293,11.0,15.0,48,0.07,,,0.39,Wunderground v.1.15,2013-03-19 15:51:00,
2013-03-19 11:57:00,48.1,28.3,29.81,WSW,242,11.0,20.0,46,0.07,,,0.39,Wunderground v.1.15,2013-03-19 15:57:00,
2013-03-19 12:02:00,48.4,28.0,29.82,West,270,12.0,20.0,45,0.05,,,0.39,Wunderground v.1.15,2013-03-19 16:02:00,
2013-03-19 12:07:00,48.7,28.8,29.82,West,281,11.0,20.0,46,0.05,,,0.40,Wunderground v.1.15,2013-03-19 16:07:00,
2013-03-19 12:12:00,49.0,28.6,29.82,WNW,286,12.0,18.0,45,0.05,,,0.40,Wunderground v.1.15,2013-03-19 16:12:00,
2013-03-19 12:18:00,49.8,29.3,29.81,WSW,249,11.0,18.0,45,0.04,,,0.41,Wunderground v.1.15,2013-03-19 16:18:00,
2013-03-19 12:23:00,49.8,28.7,29.82,WSW,247,9.0,13.0,44,0.04,,,0.41,Wunderground v.1.15,2013-03-19 16:23:00,
2013-03-19 12:29:00,49.9,28.3,29.82,WNW,290,11.0,17.0,43,0.04,,,0.41,Wunderground v.1.15,2013-03-19 16:29:00,
2013-03-19 12:34:00,50.2,28.0,29.82,West,264,12.0,12.0,42,0.04,,,0.41,Wunderground v.1.15,2013-03-19 16:34:00,
2013-03-19 12:40:00,50.3,27.5,29.82,West,262,12.0,12.0,41,0.00,,,0.41,Wunderground v.1.15,2013-03-19 16:40:00,
2013-03-19 12:46:00,50.7,28.4,29.82,West,272,11.0,17.0,42,0.00,,,0.41,Wunderground v.1.15,2013-03-19 16:46:00,
2013-03-19 12:52:00,50.7,27.8,29.82,WNW,289,12.0,12.0,41,0.00,,,0.41,Wunderground v.1.15,2013-03-19 16:52:00,
2013-03-19 12:57:00,51.0,26.9,29.81,West,264,13.0,14.0,39,0.00,,,0.41,Wunderground v.1.15,2013-03-19 16:57:00,
2013-03-19 13:03:00,51.3,27.8,29.81,WSW,247,13.0,19.0,40,0.00,,,0.41,Wunderground v.1.15,2013-03-19 17:03:00,
2013-03-19 13:08:00,51.5,29.1,29.81,SW,230,12.0,19.0,42,0.00,,,0.41,Wunderground v.1.15,2013-03-19 17:08:00,
2013-03-19 13:14:00,51.5,26.7,29.81,West,266,12.0,21.0,38,0.00,,,0.41,Wunderground v.1.15,2013-03-19 17:14:00,
2013-03-19 13:19:00,51.5,26.1,29.81,WSW,251,14.0,22.0,37,0.00,,,0.41,Wunderground v.1.15,2013-03-19 17:19:00,
2013-03-19 13:24:00,51.7,27.5,29.80,WSW,255,13.0,17.0,39,0.00,,,0.41,Wunderground v.1.15,2013-03-19 17:24:00,
2013-03-19 13:30:00,51.3,27.2,29.79,WSW,247,13.0,13.0,39,0.00,,,0.41,Wunderground v.1.15,2013-03-19 17:30:00,
2013-03-19 13:35:00,51.8,26.3,29.79,West,267,14.0,18.0,37,0.00,,,0.41,Wunderground v.1.15,2013-03-19 17:35:00,
2013-03-19 13:40:00,52.0,25.8,29.79,West,274,14.0,15.0,36,0.00,,,0.41,Wunderground v.1.15,2013-03-19 17:40:00,
2013-03-19 13:46:00,52.7,27.1,29.78,West,262,13.0,15.0,37,0.00,,,0.41,Wunderground v.1.15,2013-03-19 17:46:00,
2013-03-19 13:51:00,52.6,26.4,29.78,West,271,13.0,13.0,36,0.00,,,0.41,Wunderground v.1.15,2013-03-19 17:51:00,
2013-03-19 13:57:00,52.9,26.6,29.78,WSW,246,15.0,16.0,36,0.00,,,0.41,Wunderground v.1.15,2013-03-19 17:57:00,
2013-03-19 14:03:00,52.7,27.8,29.78,SW,235,14.0,17.0,38,0.00,,,0.41,Wunderground v.1.15,2013-03-19 18:03:00,
2013-03-19 14:08:00,52.9,28.0,29.78,WSW,243,13.0,17.0,38,0.00,,,0.41,Wunderground v.1.15,2013-03-19 18:08:00,
2013-03-19 14:14:00,53.3,28.3,29.77,SW,220,13.0,14.0,38,0.00,,,0.41,Wunderground v.1.15,2013-03-19 18:14:00,
2013-03-19 14:19:00,53.4,25.7,29.77,SW,229,14.0,20.0,34,0.00,,,0.41,Wunderground v.1.15,2013-03-19 18:19:00,
2013-03-19 14:25:00,53.4,25.7,29.77,WSW,240,13.0,22.0,34,0.00,,,0.41,Wunderground v.1.15,2013-03-19 18:25:00,
2013-03-19 14:31:00,53.5,26.5,29.76,WSW,251,14.0,17.0,35,0.00,,,0.41,Wunderground v.1.15,2013-03-19 18:31:00,
2013-03-19 14:37:00,53.6,26.6,29.74,WSW,252,14.0,21.0,35,0.00,,,0.41,Wunderground v.1.15,2013-03-19 18:37:00,
2013-03-19 14:42:00,53.4,26.4,29.74,WSW,238,15.0,15.0,35,0.00,,,0.41,Wunderground v.1.15,2013-03-19 18:42:00,
2013-03-19 14:47:00,53.9,25.4,29.75,WSW,247,15.0,18.0,33,0.00,,,0.41,Wunderground v.1.15,2013-03-19 18:47:00,
2013-03-19 14:52:00,54.2,26.4,29.75,SW,223,14.0,15.0,34,0.00,,,0.41,Wunderground v.1.15,2013-03-19 18:52:00,
2013-03-19 14:58:00,55.1,26.5,29.76,WSW,250,12.0,15.0,33,0.00,,,0.41,Wunderground v.1.15,2013-03-19 18:58:00,
2013-03-19 15:03:00,55.1,25.7,29.75,WSW,247,11.0,17.0,32,0.00,,,0.41,Wunderground v.1.15,2013-03-19 19:03:00,
2013-03-19 15:08:00,55.0,24.9,29.76,SW,231,13.0,22.0,31,0.00,,,0.41,Wunderground v.1.15,2013-03-19 19:08:00,
2013-03-19 15:13:00,54.8,24.7,29.76,WSW,243,16.0,20.0,31,0.00,,,0.41,Wunderground v.1.15,2013-03-19 19:13:00,
2013-03-19 15:18:00,54.9,24.8,29.76,SW,216,15.0,21.0,31,0.00,,,0.41,Wunderground v.1.15,2013-03-19 19:18:00,
2013-03-19 15:24:00,55.3,25.9,29.76,WSW,253,14.0,16.0,32,0.00,,,0.41,Wunderground v.1.15,2013-03-19 19:24:00,
2013-03-19 15:29:00,55.7,23.9,29.76,NW,308,13.0,20.0,29,0.00,,,0.41,Wunderground v.1.15,2013-03-19 19:29:00,
2013-03-19 15:35:00,56.0,23.3,29.76,WNW,291,13.0,21.0,28,0.00,,,0.41,Wunderground v.1.15,2013-03-19 19:35:00,
2013-03-19 15:40:00,55.6,21.2,29.76,West,276,14.0,17.0,26,0.00,,,0.41,Wunderground v.1.15,2013-03-19 19:40:00,
2013-03-19 15:45:00,55.7,22.2,29.76,SW,233,14.0,23.0,27,0.00,,,0.41,Wunderground v.1.15,2013-03-19 19:45:00,
2013-03-19 15:51:00,56.1,21.6,29.76,WSW,247,14.0,15.0,26,0.00,,,0.41,Wunderground v.1.15,2013-03-19 19:51:00,
2013-03-19 15:57:00,56.2,22.6,29.76,WSW,246,12.0,15.0,27,0.00,,,0.41,Wunderground v.1.15,2013-03-19 19:57:00,
2013-03-19 16:03:00,56.2,21.7,29.76,WNW,282,13.0,15.0,26,0.00,,,0.41,Wunderground v.1.15,2013-03-19 20:03:00,
2013-03-19 16:08:00,56.2,21.7,29.76,West,262,15.0,18.0,26,0.00,,,0.41,Wunderground v.1.15,2013-03-19 20:08:00,
2013-03-19 16:13:00,56.2,20.8,29.76,WSW,255,15.0,17.0,25,0.00,,,0.41,Wunderground v.1.15,2013-03-19 20:13:00,
2013-03-19 16:18:00,56.0,20.6,29.77,WNW,296,15.0,19.0,25,0.00,,,0.41,Wunderground v.1.15,2013-03-19 20:18:00,
2013-03-19 16:23:00,56.0,18.7,29.77,WNW,287,16.0,25.0,23,0.00,,,0.41,Wunderground v.1.15,2013-03-19 20:23:00,
2013-03-19 16:29:00,55.5,17.2,29.77,WNW,292,17.0,28.0,22,0.00,,,0.41,Wunderground v.1.15,2013-03-19 20:29:00,
2013-03-19 16:35:00,55.7,18.4,29.77,West,276,16.0,21.0,23,0.00,,,0.41,Wunderground v.1.15,2013-03-19 20:35:00,
2013-03-19 16:41:00,55.7,19.4,29.78,West,275,13.0,14.0,24,0.00,,,0.41,Wunderground v.1.15,2013-03-19 20:41:00,
2013-03-19 16:46:00,56.0,20.6,29.78,West,260,13.0,16.0,25,0.00,,,0.41,Wunderground v.1.15,2013-03-19 20:46:00,
2013-03-19 16:51:00,55.9,20.5,29.78,West,265,11.0,12.0,25,0.00,,,0.41,Wunderground v.1.15,2013-03-19 20:51:00,
2013-03-19 16:56:00,55.9,19.6,29.78,West,262,11.0,15.0,24,0.00,,,0.41,Wunderground v.1.15,2013-03-19 20:56:00,
2013-03-19 17:01:00,55.4,19.2,29.79,West,262,12.0,12.0,24,0.00,,,0.41,Wunderground v.1.15,2013-03-19 21:01:00,
2013-03-19 17:07:00,55.3,17.0,29.78,SW,231,13.0,19.0,22,0.00,,,0.41,Wunderground v.1.15,2013-03-19 21:07:00,
2013-03-19 17:12:00,54.9,15.6,29.79,West,268,15.0,24.0,21,0.00,,,0.41,Wunderground v.1.15,2013-03-19 21:12:00,
2013-03-19 17:17:00,54.9,14.5,29.78,West,270,16.0,24.0,20,0.00,,,0.41,Wunderground v.1.15,2013-03-19 21:17:00,
2013-03-19 17:23:00,54.6,13.1,29.78,WNW,285,14.0,25.0,19,0.00,,,0.41,Wunderground v.1.15,2013-03-19 21:23:00,
2013-03-19 17:28:00,54.3,12.8,29.78,NW,316,15.0,25.0,19,0.00,,,0.41,Wunderground v.1.15,2013-03-19 21:28:00,
2013-03-19 17:33:00,54.2,12.8,29.79,West,273,14.0,19.0,19,0.00,,,0.41,Wunderground v.1.15,2013-03-19 21:33:00,
2013-03-19 17:39:00,54.1,12.7,29.79,WNW,290,15.0,24.0,19,0.00,,,0.41,Wunderground v.1.15,2013-03-19 21:39:00,
2013-03-19 17:44:00,54.1,11.5,29.79,WNW,283,14.0,23.0,18,0.00,,,0.41,Wunderground v.1.15,2013-03-19 21:44:00,
2013-03-19 17:50:00,53.8,11.2,29.80,West,268,13.0,16.0,18,0.00,,,0.41,Wunderground v.1.15,2013-03-19 21:50:00,
2013-03-19 17:57:00,53.6,11.0,29.80,West,272,15.0,19.0,18,0.00,,,0.41,Wunderground v.1.15,2013-03-19 21:57:00,
2013-03-19 18:03:00,53.3,10.8,29.80,West,271,15.0,25.0,18,0.00,,,0.41,Wunderground v.1.15,2013-03-19 22:03:00,
2013-03-19 18:08:00,53.3,10.8,29.80,NW,324,15.0,25.0,18,0.00,,,0.41,Wunderground v.1.15,2013-03-19 22:08:00,
2013-03-19 18:13:00,53.0,11.8,29.80,NW,306,14.0,17.0,19,0.00,,,0.41,Wunderground v.1.15,2013-03-19 22:13:00,
2013-03-19 18:18:00,53.0,11.8,29.81,West,272,13.0,18.0,19,0.00,,,0.41,Wunderground v.1.15,2013-03-19 22:18:00,
2013-03-19 18:24:00,52.6,10.2,29.81,WNW,290,13.0,18.0,18,0.00,,,0.41,Wunderground v.1.15,2013-03-19 22:24:00,
2013-03-19 18:30:00,52.4,10.1,29.81,WNW,302,13.0,13.0,18,0.00,,,0.41,Wunderground v.1.15,2013-03-19 22:30:00,
2013-03-19 18:36:00,52.2,11.1,29.82,WSW,244,11.0,13.0,19,0.00,,,0.41,Wunderground v.1.15,2013-03-19 22:36:00,
2013-03-19 18:41:00,52.0,9.7,29.83,West,268,11.0,11.0,18,0.00,,,0.41,Wunderground v.1.15,2013-03-19 22:41:00,
2013-03-19 18:46:00,52.0,10.9,29.82,West,272,11.0,13.0,19,0.00,,,0.41,Wunderground v.1.15,2013-03-19 22:46:00,
2013-03-19 18:52:00,51.7,8.2,29.83,West,267,13.0,19.0,17,0.00,,,0.41,Wunderground v.1.15,2013-03-19 22:52:00,
2013-03-19 18:58:00,51.4,9.2,29.83,West,270,14.0,23.0,18,0.00,,,0.41,Wunderground v.1.15,2013-03-19 22:58:00,
2013-03-19 19:03:00,51.0,7.6,29.84,West,262,13.0,14.0,17,0.00,,,0.41,Wunderground v.1.15,2013-03-19 23:03:00,
2013-03-19 19:09:00,50.5,8.5,29.84,NW,304,10.0,16.0,18,0.00,,,0.41,Wunderground v.1.15,2013-03-19 23:09:00,
2013-03-19 19:14:00,50.0,5.5,29.84,West,260,11.0,20.0,16,0.00,,,0.41,Wunderground v.1.15,2013-03-19 23:14:00,
2013-03-19 19:19:00,49.7,5.2,29.84,SW,235,13.0,20.0,16,0.00,,,0.41,Wunderground v.1.15,2013-03-19 23:19:00,
2013-03-19 19:24:00,49.6,3.8,29.85,WSW,253,13.0,16.0,15,0.00,,,0.41,Wunderground v.1.15,2013-03-19 23:24:00,
2013-03-19 19:29:00,49.2,4.8,29.85,West,276,13.0,16.0,16,0.00,,,0.41,Wunderground v.1.15,2013-03-19 23:29:00,
2013-03-19 19:34:00,48.8,4.5,29.85,West,264,11.0,12.0,16,0.00,,,0.41,Wunderground v.1.15,2013-03-19 23:34:00,
2013-03-19 19:39:00,48.6,4.3,29.85,West,277,10.0,12.0,16,0.00,,,0.41,Wunderground v.1.15,2013-03-19 23:39:00,
2013-03-19 19:45:00,48.4,4.2,29.85,West,279,11.0,19.0,16,0.00,,,0.41,Wunderground v.1.15,2013-03-19 23:45:00,
2013-03-19 19:50:00,48.3,4.1,29.85,WNW,290,12.0,12.0,16,0.00,,,0.41,Wunderground v.1.15,2013-03-19 23:50:00,
2013-03-19 19:57:00,48.2,4.0,29.86,West,265,12.0,19.0,16,0.00,,,0.41,Wunderground v.1.15,2013-03-19 23:57:00,
2013-03-19 20:03:00,48.1,2.5,29.86,West,272,14.0,20.0,15,0.00,,,0.41,Wunderground v.1.15,2013-03-20 00:03:00,
2013-03-19 20:09:00,47.7,3.6,29.87,West,273,15.0,20.0,16,0.00,,,0.41,Wunderground v.1.15,2013-03-20 00:09:00,
2013-03-19 20:15:00,47.3,4.6,29.87,NNW,337,12.0,14.0,17,0.00,,,0.41,Wunderground v.1.15,2013-03-20 00:15:00,
2013-03-19 20:21:00,47.0,4.4,29.88,WSW,249,10.0,14.0,17,0.00,,,0.41,Wunderground v.1.15,2013-03-20 00:21:00,
2013-03-19 20:27:00,46.9,4.3,29.88,West,280,12.0,24.0,17,0.00,,,0.41,Wunderground v.1.15,2013-03-20 00:27:00,
2013-03-19 20:33:00,46.6,5.3,29.88,WNW,283,12.0,18.0,18,0.00,,,0.41,Wunderground v.1.15,2013-03-20 00:33:00,
2013-03-19 20:39:00,46.3,5.0,29.88,North,354,11.0,18.0,18,0.00,,,0.41,Wunderground v.1.15,2013-03-20 00:39:00,
2013-03-19 20:44:00,46.2,6.1,29.88,WSW,252,11.0,14.0,19,0.00,,,0.41,Wunderground v.1.15,2013-03-20 00:44:00,
2013-03-19 20:50:00,46.0,4.8,29.89,West,268,11.0,11.0,18,0.00,,,0.41,Wunderground v.1.15,2013-03-20 00:50:00,
2013-03-19 20:55:00,45.8,5.8,29.89,NW,319,10.0,22.0,19,0.00,,,0.41,Wunderground v.1.15,2013-03-20 00:55:00,
2013-03-19 21:00:00,45.7,5.7,29.90,WSW,253,9.0,9.0,19,0.00,,,0.41,Wunderground v.1.15,2013-03-20 01:00:00,
2013-03-19 21:06:00,45.4,5.5,29.90,NW,314,10.0,23.0,19,0.00,,,0.41,Wunderground v.1.15,2013-03-20 01:06:00,
2013-03-19 21:12:00,45.2,5.3,29.90,WNW,293,11.0,12.0,19,0.00,,,0.41,Wunderground v.1.15,2013-03-20 01:12:00,
2013-03-19 21:17:00,44.9,6.2,29.90,West,272,10.0,13.0,20,0.00,,,0.41,Wunderground v.1.15,2013-03-20 01:17:00,
2013-03-19 21:23:00,45.0,4.0,29.91,WNW,284,10.0,15.0,18,0.00,,,0.41,Wunderground v.1.15,2013-03-20 01:23:00,
2013-03-19 21:28:00,45.0,6.3,29.91,West,268,11.0,15.0,20,0.00,,,0.41,Wunderground v.1.15,2013-03-20 01:28:00,
2013-03-19 21:33:00,44.5,6.9,29.91,West,268,10.0,12.0,21,0.00,,,0.41,Wunderground v.1.15,2013-03-20 01:33:00,
2013-03-19 21:38:00,44.4,6.8,29.91,West,270,10.0,13.0,21,0.00,,,0.41,Wunderground v.1.15,2013-03-20 01:38:00,
2013-03-19 21:43:00,44.4,7.9,29.91,West,266,11.0,11.0,22,0.00,,,0.41,Wunderground v.1.15,2013-03-20 01:43:00,
2013-03-19 21:49:00,44.3,7.8,29.91,West,266,12.0,15.0,22,0.00,,,0.41,Wunderground v.1.15,2013-03-20 01:49:00,
2013-03-19 21:54:00,44.1,7.6,29.92,WNW,300,11.0,16.0,22,0.00,,,0.41,Wunderground v.1.15,2013-03-20 01:54:00,
2013-03-19 21:59:00,43.8,8.3,29.92,WNW,287,10.0,16.0,23,0.00,,,0.41,Wunderground v.1.15,2013-03-20 01:59:00,
2013-03-19 22:04:00,43.7,8.3,29.92,West,276,9.0,14.0,23,0.00,,,0.41,Wunderground v.1.15,2013-03-20 02:04:00,
2013-03-19 22:10:00,43.6,8.2,29.92,West,281,10.0,16.0,23,0.00,,,0.41,Wunderground v.1.15,2013-03-20 02:10:00,
2013-03-19 22:15:00,43.5,8.1,29.93,WNW,287,10.0,16.0,23,0.00,,,0.41,Wunderground v.1.15,2013-03-20 02:15:00,
2013-03-19 22:21:00,43.3,7.9,29.93,West,274,9.0,11.0,23,0.00,,,0.41,Wunderground v.1.15,2013-03-20 02:21:00,
2013-03-19 22:27:00,43.3,7.9,29.93,West,274,9.0,15.0,23,0.00,,,0.41,Wunderground v.1.15,2013-03-20 02:27:00,
2013-03-19 22:32:00,43.1,7.7,29.93,WSW,254,8.0,8.0,23,0.00,,,0.41,Wunderground v.1.15,2013-03-20 02:32:00,
2013-03-19 22:38:00,42.8,8.4,29.93,WNW,296,7.0,10.0,24,0.00,,,0.41,Wunderground v.1.15,2013-03-20 02:38:00,
2013-03-19 22:44:00,42.5,9.1,29.93,West,270,6.0,10.0,25,0.00,,,0.41,Wunderground v.1.15,2013-03-20 02:44:00,
2013-03-19 22:50:00,42.3,7.1,29.93,WNW,301,8.0,8.0,23,0.00,,,0.41,Wunderground v.1.15,2013-03-20 02:50:00,
2013-03-19 22:55:00,42.2,7.0,29.93,WNW,295,8.0,11.0,23,0.00,,,0.41,Wunderground v.1.15,2013-03-20 02:55:00,
2013-03-19 23:01:00,42.4,6.2,29.93,WNW,291,9.0,10.0,22,0.00,,,0.41,Wunderground v.1.15,2013-03-20 03:01:00,
2013-03-19 23:07:00,42.2,6.0,29.94,West,270,9.0,11.0,22,0.00,,,0.41,Wunderground v.1.15,2013-03-20 03:07:00,
2013-03-19 23:13:00,41.9,5.8,29.94,WNW,293,7.0,9.0,22,0.00,,,0.41,Wunderground v.1.15,2013-03-20 03:13:00,
2013-03-19 23:18:00,41.9,5.8,29.94,WSW,254,9.0,13.0,22,0.00,,,0.41,Wunderground v.1.15,2013-03-20 03:18:00,
2013-03-19 23:23:00,41.8,5.7,29.94,WSW,251,9.0,11.0,22,0.00,,,0.41,Wunderground v.1.15,2013-03-20 03:23:00,
2013-03-19 23:29:00,41.7,5.6,29.94,WSW,237,7.0,11.0,22,0.00,,,0.41,Wunderground v.1.15,2013-03-20 03:29:00,
2013-03-19 23:35:00,41.5,6.4,29.94,West,280,6.0,10.0,23,0.00,,,0.41,Wunderground v.1.15,2013-03-20 03:35:00,
2013-03-19 23:41:00,41.4,6.3,29.94,West,272,7.0,10.0,23,0.00,,,0.41,Wunderground v.1.15,2013-03-20 03:41:00,
2013-03-19 23:47:00,41.3,6.2,29.95,WNW,297,8.0,12.0,23,0.00,,,0.41,Wunderground v.1.15,2013-03-20 03:47:00,
2013-03-19 23:52:00,41.2,5.2,29.95,WNW,291,8.0,11.0,22,0.00,,,0.41,Wunderground v.1.15,2013-03-20 03:52:00,
2013-03-19 23:57:00,41.2,5.2,29.94,West,276,8.0,11.0,22,0.00,,,0.41,Wunderground v.1.15,2013-03-20 03:57:00,